TimePDT,TemperatureF,Dew PointF,Humidity,Sea Level PressureIn,VisibilityMPH,Wind Direction,Wind SpeedMPH,Gust SpeedMPH,PrecipitationIn,Events,Conditions,WindDirDegrees,DateUTC
12:53 AM,48.0,36.0,63,30.16,8.0,Calm,Calm,-,N/A,,Clear,0,2013-08-30 07:53:00
1:53 AM,46.0,36.0,68,30.16,9.0,Calm,Calm,-,N/A,,Clear,0,2013-08-30 08:53:00
2:53 AM,45.0,35.1,68,30.15,8.0,Calm,Calm,-,N/A,,Clear,0,2013-08-30 09:53:00
3:53 AM,44.1,35.1,71,30.14,7.0,Calm,Calm,-,N/A,,Clear,0,2013-08-30 10:53:00
4:53 AM,42.1,34.0,73,30.15,7.0,Calm,Calm,-,N/A,,Clear,0,2013-08-30 11:53:00
5:53 AM,43.0,33.1,68,30.17,7.0,Calm,Calm,-,N/A,,Clear,0,2013-08-30 12:53:00
6:53 AM,42.1,33.1,70,30.19,5.0,Calm,Calm,-,N/A,,Haze,0,2013-08-30 13:53:00
7:14 AM,42.8,33.8,70,30.32,4.0,Calm,Calm,-,N/A,,Haze,0,2013-08-30 14:14:00
7:53 AM,48.0,36.0,63,30.19,4.0,Calm,Calm,-,N/A,,Haze,0,2013-08-30 14:53:00
8:49 AM,60.8,39.2,45,30.33,5.0,Calm,Calm,-,N/A,,Haze,0,2013-08-30 15:49:00
8:53 AM,61.0,39.0,44,30.17,5.0,Calm,Calm,-,N/A,,Haze,0,2013-08-30 15:53:00
9:26 AM,69.8,37.4,31,30.33,4.0,NE,3.5,-,N/A,,Haze,40,2013-08-30 16:26:00
9:53 AM,73.0,39.0,29,30.15,4.0,NNE,4.6,-,N/A,,Haze,20,2013-08-30 16:53:00
10:21 AM,77.0,28.4,17,30.32,5.0,South,12.7,19.6,N/A,,Haze,190,2013-08-30 17:21:00
10:43 AM,78.8,28.4,16,30.32,4.0,SSW,8.1,25.3,N/A,,Haze,210,2013-08-30 17:43:00
10:53 AM,78.1,30.0,17,30.14,4.0,SSW,12.7,17.3,N/A,,Haze,200,2013-08-30 17:53:00
11:29 AM,80.6,26.6,14,30.32,5.0,SSW,11.5,21.9,N/A,,Haze,200,2013-08-30 18:29:00
11:53 AM,80.1,27.0,14,30.15,5.0,SSW,16.1,26.5,N/A,,Haze,200,2013-08-30 18:53:00
12:53 PM,82.0,28.0,14,30.14,5.0,South,15.0,23.0,N/A,,Haze,190,2013-08-30 19:53:00
1:53 PM,82.0,28.0,14,30.13,6.0,South,9.2,16.1,N/A,,Haze,190,2013-08-30 20:53:00
2:53 PM,82.0,25.0,12,30.11,8.0,SSW,15.0,27.6,N/A,,Clear,200,2013-08-30 21:53:00
3:09 PM,82.4,26.6,13,30.27,1.5,Variable,6.9,-,N/A,,Haze,0,2013-08-30 22:09:00
3:19 PM,84.2,26.6,12,30.27,4.0,South,10.4,17.3,N/A,,Haze,190,2013-08-30 22:19:00
3:26 PM,82.4,26.6,13,30.27,10.0,Variable,6.9,20.7,N/A,,Clear,0,2013-08-30 22:26:00
3:53 PM,82.0,26.1,13,30.10,10.0,Variable,4.6,19.6,N/A,,Clear,0,2013-08-30 22:53:00
4:53 PM,82.0,32.0,16,30.10,10.0,Variable,3.5,16.1,N/A,,Clear,0,2013-08-30 23:53:00
5:53 PM,79.0,35.1,20,30.10,10.0,SSW,6.9,-,N/A,,Clear,210,2013-08-31 00:53:00
6:53 PM,75.9,37.0,24,30.11,10.0,SSW,5.8,-,N/A,,Clear,200,2013-08-31 01:53:00
7:53 PM,69.1,37.9,32,30.12,10.0,SSW,3.5,-,N/A,,Overcast,210,2013-08-31 02:53:00
8:53 PM,66.0,39.0,37,30.10,10.0,Calm,Calm,-,N/A,,Overcast,0,2013-08-31 03:53:00
9:53 PM,63.0,39.0,41,30.09,10.0,Calm,Calm,-,N/A,,Overcast,0,2013-08-31 04:53:00
10:53 PM,57.9,39.0,49,30.10,10.0,SSW,3.5,-,N/A,,Overcast,210,2013-08-31 05:53:00
11:53 PM,55.0,39.0,55,30.10,10.0,Calm,Calm,-,N/A,,Overcast,0,2013-08-31 06:53:00